Index of /ubuntu/ubuntu/dists

[ICO]NameLast modifiedSizeDescription

[PARENTDIR]Parent Directory  -  
[DIR]trusty/2015-10-07 14:44 -  
[DIR]xenial/2016-04-21 10:43 -  
[DIR]trusty-backports/2017-12-15 11:49 -  
[DIR]bionic/2018-04-27 02:38 -  
[DIR]focal/2020-04-23 20:34 -  
[DIR]trusty-security/2020-05-29 11:06 -  
[DIR]trusty-updates/2020-05-29 11:08 -  
[DIR]jammy/2022-04-21 20:16 -  
[DIR]kinetic/2022-10-20 22:48 -  
[DIR]devel-backports/2022-11-29 22:39 -  
[DIR]lunar-backports/2022-11-29 22:39 -  
[DIR]devel-security/2022-11-30 00:45 -  
[DIR]lunar-security/2022-11-30 00:45 -  
[DIR]devel-updates/2022-11-30 00:45 -  
[DIR]lunar-updates/2022-11-30 00:45 -  
[DIR]trusty-proposed/2023-01-03 10:34 -  
[DIR]xenial-proposed/2023-01-28 17:45 -  
[DIR]kinetic-security/2023-01-29 10:35 -  
[DIR]kinetic-updates/2023-01-29 10:35 -  
[DIR]kinetic-backports/2023-01-29 10:35 -  
[DIR]jammy-security/2023-01-29 10:35 -  
[DIR]jammy-updates/2023-01-29 10:36 -  
[DIR]jammy-backports/2023-01-29 10:36 -  
[DIR]focal-security/2023-01-29 10:37 -  
[DIR]focal-updates/2023-01-29 10:38 -  
[DIR]focal-proposed/2023-01-29 10:39 -  
[DIR]focal-backports/2023-01-29 10:39 -  
[DIR]bionic-security/2023-01-29 10:40 -  
[DIR]bionic-updates/2023-01-29 10:42 -  
[DIR]bionic-proposed/2023-01-29 10:42 -  
[DIR]bionic-backports/2023-01-29 10:42 -  
[DIR]xenial-security/2023-01-29 10:43 -  
[DIR]xenial-updates/2023-01-29 10:44 -  
[DIR]xenial-backports/2023-01-29 10:44 -  
[DIR]devel/2023-01-29 11:48 -  
[DIR]lunar/2023-01-29 11:48 -  
[DIR]devel-proposed/2023-01-29 11:48 -  
[DIR]lunar-proposed/2023-01-29 11:48 -  
[DIR]kinetic-proposed/2023-01-29 11:48 -  
[DIR]jammy-proposed/2023-01-29 11:48 -